Wetbulb
58.25 53.07 52.32 50.17 42.64 41.18 39.09 43.53 47.59 48.17 50.27 52.94 54.82 57.94 61.00 65.28 62.55 55.39 70.19 72.79 74.51 74.65 76.12 76.81 77.45 77.30 76.90 76.54 76.46 76.23 76.05 75.76 75.98 75.96 75.76 75.84 75.76 76.16 76.48 76.58 76.93 76.42 75.73 75.43 73.98 74.13 74.13 73.94 73.62
54.87 53.65 51.53 44.89 38.41 34.43 38.77 44.34 46.85 49.40 52.19 53.26 54.52 66.20 65.84 65.55 70.71 69.88 70.52 73.83 74.58 75.07 75.66 76.09 77.56 77.49 76.95 76.19 76.42 76.03 75.91 75.81 75.74 75.73 75.69 75.66 75.63 75.98 76.13 76.81 76.69 75.74 75.17 74.81 74.09 74.08 74.04 73.75 73.53
55.35 53.28 47.60 42.58 35.75 36.84 38.88 44.75 47.44 51.30 51.86 51.10 51.60 62.70 67.83 67.20 71.26 70.86 72.78 74.21 74.64 74.58 75.35 76.02 77.46 77.26 76.72 75.99 76.12 75.99 75.78 75.56 75.66 75.91 75.83 75.63 75.73 76.07 76.46 76.55 76.59 75.51 74.89 74.34 73.70 73.73 73.99 73.77 73.60
50.23 47.51 45.04 38.04 36.05 40.32 43.75 47.60 46.58 47.91 49.74 50.80 53.33 59.85 66.78 72.96 72.16 72.87 74.02 74.71 74.14 74.41 74.84 76.73 77.13 76.81 76.69 75.86 75.78 76.07 75.72 75.70 75.63 75.80 75.90 75.68 75.58 75.96 76.14 76.56 76.55 75.87 74.95 73.83 73.30 73.59 73.84 73.99 73.54
47.93 42.99 36.78 36.05 38.66 41.47 44.23 47.23 48.21 45.98 47.02 49.27 50.75 53.99 64.62 71.25 73.06 73.24 73.36 74.21 73.82 74.27 75.01 76.28 77.00 76.87 76.58 75.76 75.76 75.95 75.82 75.50 75.58 75.93 75.73 75.56 75.76 75.75 75.80 76.11 76.23 75.87 75.01 74.01 73.52 73.39 74.04 73.89 73.47
41.65 39.81 32.54 32.72 36.27 42.18 44.18 46.03 46.15 45.01 46.28 47.54 47.94 55.93 65.23 71.78 71.67 72.34 73.06 72.63 74.49 74.59 75.19 75.59 76.80 76.57 76.37 76.10 75.99 75.88 75.53 75.59 75.69 75.66 75.87 75.74 75.79 75.90 75.73 75.89 75.83 75.66 75.07 74.27 73.84 73.79 73.74 73.69 73.84
39.01 35.30 31.91 31.50 36.26 38.82 43.81 45.78 45.00 44.96 44.98 45.80 49.80 59.70 63.01 70.07 71.89 72.64 71.79 73.15 73.94 75.04 74.91 75.07 75.55 76.09 76.52 75.93 75.77 75.72 75.29 75.45 75.49 75.32 75.56 75.68 75.68 75.73 75.66 75.48 75.30 74.93 74.80 74.92 74.64 74.35 74.05 73.82 73.96
41.57 38.76 32.95 34.46 35.92 37.29 43.45 44.78 44.71 43.29 46.41 50.40 55.30 57.37 62.40 68.03 72.82 72.21 71.60 72.60 72.92 74.16 74.61 74.26 75.30 75.29 74.78 74.72 75.79 75.66 75.29 75.16 74.92 75.08 75.15 75.22 75.48 75.62 75.40 74.42 74.38 74.33 74.13 74.34 74.24 73.82 73.70 73.55 73.45
42.89 34.78 31.06 34.74 37.35 39.72 41.72 40.94 45.21 46.94 45.73 47.84 49.42 56.99 67.55 72.11 73.56 71.58 71.71 72.08 71.67 72.61 73.57 74.08 74.29 74.15 74.18 74.17 75.02 75.58 75.47 75.28 75.03 75.15 75.13 73.96 72.40 73.11 73.89 74.21 74.27 74.27 73.95 73.94 74.06 73.71 73.57 73.50 73.57
40.20 32.85 35.00 39.87 40.83 39.62 39.28 40.67 43.18 44.32 43.99 45.97 48.86 58.20 69.43 72.45 72.16 70.73 70.69 70.63 70.53 70.90 72.17 73.37 73.00 73.07 73.64 74.62 74.06 73.24 73.74 73.54 73.00 73.11 73.22 72.22 71.40 71.54 73.10 73.58 74.15 74.16 73.87 74.09 74.08 73.95 73.68 73.19 69.95
39.45 36.86 40.06 41.18 43.04 43.13 40.50 42.62 44.07 42.86 41.97 44.52 45.22 51.22 57.03 64.25 69.75 70.83 71.34 71.37 71.14 71.68 72.27 72.45 72.78 73.05 72.91 73.06 73.72 73.72 73.49 72.78 72.68 72.65 72.55 71.29 71.08 71.27 71.54 70.95 71.87 71.20 73.29 70.96 72.60 72.06 71.40 70.09 69.53
36.01 40.71 42.90 42.27 44.13 42.48 40.56 43.81 43.01 43.39 44.51 46.72 46.82 48.33 49.22 56.44 60.95 66.33 70.95 71.05 71.01 70.99 71.45 72.05 71.67 72.06 72.41 72.99 72.73 72.89 72.79 72.45 72.16 72.64 72.30 71.13 69.69 68.69 69.30 69.48 69.30 69.84 70.45 69.64 69.14 68.74 68.38 68.35 68.47
37.06 40.52 42.72 43.74 43.29 42.83 43.85 42.30 42.97 43.87 46.18 47.32 46.87 48.59 47.56 46.30 55.86 60.49 68.70 70.23 70.84 69.82 70.09 70.74 71.45 71.47 71.55 72.52 73.13 73.15 72.78 72.60 72.17 72.27 72.48 71.78 70.39 69.18 69.25 69.61 69.20 69.23 69.28 69.12 68.11 67.16 66.76 65.96 65.80
41.89 43.07 43.54 42.95 42.77 41.54 41.69 43.56 42.08 44.00 46.52 46.13 46.23 47.25 47.54 47.33 59.59 66.20 67.03 68.61 69.13 69.59 69.45 69.52 70.79 70.20 68.54 69.21 71.35 72.04 72.03 72.23 72.00 72.22 72.50 71.99 70.13 69.11 68.55 68.50 68.81 68.78 69.05 68.15 68.15 67.03 65.85 65.34 64.62
44.06 40.10 42.55 42.09 42.74 41.80 42.73 40.62 40.98 44.91 46.07 45.32 45.51 46.33 47.81 47.99 62.39 63.74 66.27 67.45 68.89 69.19 69.42 68.62 70.04 70.16 69.60 70.06 70.25 69.70 70.08 71.38 71.24 71.08 71.54 71.97 70.43 68.67 68.10 68.55 68.15 68.76 68.92 68.04 68.06 67.86 66.96 65.38 66.18
38.28 39.68 36.65 39.77 41.79 42.25 41.95 37.49 42.61 45.01 44.17 44.34 45.65 46.05 47.08 47.39 51.51 63.33 65.80 67.45 68.74 68.85 68.10 68.61 70.18 68.54 67.88 69.80 70.36 70.80 69.46 69.16 69.59 69.88 69.79 71.02 70.91 70.17 69.40 69.23 68.40 69.26 68.15 67.61 67.18 66.03 65.98 65.51 64.40
35.49 30.01 32.47 37.30 41.27 41.60 40.07 37.11 43.54 45.00 43.54 43.47 44.08 45.16 46.58 46.86 47.70 60.52 65.78 66.60 67.23 67.98 67.75 67.24 67.43 66.96 66.06 68.85 69.19 69.56 70.31 69.54 69.95 70.09 69.39 69.69 70.56 70.60 69.25 68.44 68.19 68.33 66.88 66.05 65.60 62.34 63.38 62.19 61.06
32.23 31.08 35.37 35.19 39.46 40.02 39.66 36.75 41.75 43.72 43.11 43.12 44.03 44.43 45.71 46.77 48.14 56.61 65.09 66.20 66.46 66.88 67.35 66.25 64.21 63.03 65.04 67.93 67.79 69.12 70.77 69.14 68.51 68.31 69.44 70.31 70.82 70.30 69.07 66.12 66.32 65.74 64.08 63.45 62.37 60.65 61.64 61.81 60.62
38.07 36.89 34.53 36.74 41.19 39.59 37.75 38.00 40.62 43.22 42.50 42.07 42.92 43.94 45.28 46.38 48.41 61.13 64.67 65.84 65.88 65.09 63.22 62.61 63.06 63.50 65.92 65.74 66.61 67.18 65.87 67.04 67.50 66.53 67.40 69.44 69.56 69.42 67.14 64.76 63.91 63.44 62.36 61.67 60.96 59.96 59.43 59.45 59.87
38.86 35.18 33.88 37.60 41.00 38.69 38.68 38.97 41.85 43.63 43.24 42.62 43.63 43.66 45.04 45.92 49.78 63.19 63.84 64.83 64.25 63.45 62.96 63.38 64.54 65.98 66.31 66.71 66.96 67.68 66.93 66.07 67.49 67.61 68.11 68.76 69.13 67.88 65.62 63.62 62.34 61.63 60.46 59.99 59.18 58.41 57.43 57.09 58.43
37.98 36.42 34.55 35.10 40.12 39.58 38.23 36.17 39.02 43.41 44.38 44.46 44.45 45.62 45.78 46.02 54.95 62.95 63.08 62.66 62.02 62.11 63.27 64.39 64.90 65.72 66.13 67.52 65.69 64.86 65.51 64.68 62.27 61.69 62.15 63.97 66.16 68.29 65.90 64.23 62.32 62.39 60.90 59.70 59.19 58.87 57.63 56.18 54.69
35.37 40.29 39.02 38.15 35.64 29.62 38.62 27.87 35.75 39.89 42.57 43.73 45.56 44.86 48.93 58.80 60.18 63.34 63.68 62.26 62.30 62.73 63.01 62.96 65.88 65.36 67.00 66.42 63.81 63.28 62.26 60.08 58.36 58.00 58.50 59.21 60.55 61.13 63.55 66.03 64.85 65.56 63.35 63.56 62.89 62.01 57.10 54.18 52.45
38.34 42.10 39.45 38.48 34.27 32.37 34.53 30.66 35.07 38.34 39.07 41.07 43.75 54.79 57.82 59.62 61.18 62.58 63.47 59.77 60.31 60.76 59.76 59.64 60.08 60.48 61.42 61.50 62.01 61.44 58.28 57.68 56.49 56.21 56.39 56.42 57.09 57.86 58.12 57.76 58.83 58.29 58.80 58.25 57.99 57.79 56.82 57.00 57.27
43.45 40.24 37.99 35.95 32.53 27.08 32.51 32.43 32.32 36.02 40.12 41.24 49.38 56.92 57.50 57.40 57.53 57.53 58.37 58.79 57.91 58.32 57.95 57.91 58.38 57.65 58.03 58.54 58.45 57.32 56.26 55.83 54.63 53.57 54.33 54.16 54.39 54.61 55.32 55.67 54.45 53.57 53.28 53.38 53.70 54.07 53.90 54.38 55.51
41.41 36.02 26.17 24.38 24.05 26.51 34.13 31.83 34.44 40.42 43.28 45.82 53.19 54.86 55.98 56.29 56.19 56.36 56.13 56.25 56.41 56.23 56.37 56.94 56.42 55.20 55.86 56.39 56.23 56.69 55.04 54.08 52.72 52.53 52.70 52.61 52.38 51.97 52.42 52.78 52.65 52.77 53.09 53.17 52.46 51.46 51.58 51.61 51.24
37.69 35.67 27.13 21.97 23.21 26.95 35.35 29.99 34.79 42.35 46.68 48.62 55.57 54.81 55.44 55.00 54.96 54.88 55.47 55.75 55.52 55.59 56.13 55.49 55.42 54.39 54.77 54.55 54.49 55.04 54.39 53.29 52.44 52.27 52.04 51.29 51.09 51.16 51.52 51.92 51.90 51.53 51.10 50.41 48.90 48.66 48.56 49.47 48.16
38.33 35.80 38.60 31.88 33.96 27.48 31.40 36.34 43.44 47.01 47.87 51.95 52.55 53.89 53.00 53.22 53.56 53.85 54.59 54.98 54.66 54.35 54.57 54.15 54.20 53.11 52.88 52.47 52.55 52.22 52.40 52.30 51.35 51.20 51.08 51.08 50.74 52.08 50.77 50.08 49.17 49.07 49.10 48.69 47.48 46.22 46.27 46.37 46.05
43.03 42.15 33.78 32.76 25.70 23.56 30.87 34.40 35.31 41.90 43.93 48.43 50.20 50.09 50.12 51.70 52.48 52.87 53.38 53.77 53.75 53.24 52.12 51.97 52.27 51.61 51.13 51.62 51.82 51.97 51.77 51.55 50.90 50.63 50.27 50.14 50.00 49.29 48.78 48.17 47.69 47.57 47.78 47.70 46.86 45.98 46.26 46.23 46.39
41.06 39.47 38.89 36.25 33.08 26.99 27.67 32.08 43.01 42.64 44.22 45.98 47.28 48.58 49.81 50.70 51.57 52.49 52.93 52.92 51.62 51.14 51.05 50.74 50.11 49.60 49.58 50.47 50.37 51.02 51.02 51.12 50.86 50.49 50.20 49.81 48.87 48.26 48.01 48.20 47.91 47.71 47.69 47.55 46.72 46.33 46.69 46.60 46.63
44.05 40.11 39.67 30.46 29.11 31.92 31.95 31.57 45.82 45.32 44.98 47.11 47.81 48.86 49.86 50.94 51.38 51.45 51.58 50.34 49.66 49.53 49.67 49.22 48.79 48.27 48.45 49.88 50.22 49.92 50.17 50.31 49.51 48.89 49.04 49.37 47.99 47.45 47.78 48.19 48.11 48.17 48.16 47.83 46.97 46.58 47.12 46.88 46.46
MSLP
1010.32 1010.16 1010.25 1010.35 1011.63 1011.89 1010.89 1009.01 1007.33 1006.23 1005.03 1003.98 1003.49 1003.10 1002.89 1003.17 1003.31 1003.99 1003.40 1003.95 1004.31 1005.00 1005.45 1006.31 1006.82 1007.43 1007.97 1008.21 1008.56 1008.88 1009.00 1009.49 1009.81 1010.10 1010.45 1010.84 1011.21 1011.52 1011.84 1012.12 1012.28 1012.41 1012.60 1012.76 1013.08 1013.39 1013.54 1013.67 1013.82
1010.18 1010.23 1010.58 1011.26 1011.88 1011.93 1010.04 1008.00 1006.77 1005.82 1004.41 1004.07 1003.49 1003.27 1003.06 1003.12 1003.11 1003.50 1003.57 1004.08 1004.56 1005.32 1005.69 1006.06 1006.77 1007.35 1008.01 1008.40 1008.69 1009.09 1009.46 1009.76 1010.20 1010.40 1010.67 1011.01 1011.35 1011.68 1012.07 1012.39 1012.63 1012.82 1012.92 1013.05 1013.19 1013.54 1013.81 1013.97 1014.14
1010.15 1010.33 1011.10 1011.84 1011.67 1010.76 1009.25 1007.32 1006.48 1005.05 1004.46 1004.19 1003.79 1003.08 1003.32 1002.90 1003.05 1003.53 1003.27 1004.01 1004.75 1005.58 1006.03 1006.66 1006.70 1007.18 1007.93 1008.61 1009.04 1009.27 1009.68 1009.94 1010.31 1010.59 1010.95 1011.28 1011.61 1011.91 1012.23 1012.59 1012.82 1013.01 1013.27 1013.50 1013.60 1013.70 1013.96 1014.17 1014.35
1010.45 1011.08 1012.02 1011.74 1011.31 1009.23 1007.79 1006.88 1006.07 1005.16 1003.85 1003.73 1003.82 1003.53 1003.00 1002.12 1002.67 1002.81 1003.64 1004.40 1004.90 1005.78 1006.27 1006.86 1007.45 1007.45 1008.02 1008.78 1009.27 1009.54 1009.76 1010.09 1010.37 1010.82 1011.18 1011.51 1011.81 1012.07 1012.34 1012.68 1013.00 1013.18 1013.41 1013.60 1013.84 1014.05 1014.11 1014.32 1014.52
1010.84 1011.91 1012.28 1012.08 1010.62 1008.77 1007.37 1006.44 1005.98 1005.65 1005.06 1003.81 1003.77 1003.49 1003.39 1002.80 1002.61 1003.06 1003.91 1004.62 1005.23 1006.04 1006.30 1007.09 1007.70 1007.97 1008.20 1008.86 1009.37 1009.84 1010.13 1010.38 1010.65 1011.09 1011.46 1011.81 1012.03 1012.31 1012.55 1012.80 1013.06 1013.26 1013.48 1013.66 1013.86 1014.10 1014.31 1014.50 1014.62
1011.80 1012.50 1012.99 1012.16 1010.61 1008.83 1007.21 1006.12 1005.99 1005.55 1004.77 1003.67 1003.62 1003.29 1003.19 1003.01 1002.94 1003.68 1004.05 1004.67 1005.51 1006.08 1006.74 1007.09 1007.76 1008.17 1008.42 1008.75 1009.27 1009.85 1010.22 1010.53 1010.73 1010.99 1011.42 1011.84 1012.15 1012.57 1012.96 1013.21 1013.31 1013.39 1013.64 1013.88 1014.01 1014.15 1014.33 1014.49 1014.74
1011.95 1012.70 1012.38 1011.61 1010.30 1009.30 1007.16 1005.98 1005.60 1005.16 1004.46 1003.45 1002.75 1002.99 1003.36 1003.50 1003.37 1003.84 1004.36 1004.97 1005.55 1006.22 1007.05 1007.49 1007.86 1008.20 1008.55 1008.98 1009.37 1009.89 1010.26 1010.64 1011.02 1011.30 1011.66 1011.98 1012.32 1012.57 1012.87 1013.22 1013.55 1013.76 1013.93 1014.11 1014.26 1014.37 1014.41 1014.50 1014.64
1011.54 1012.15 1012.16 1011.36 1010.43 1008.84 1006.91 1005.95 1005.30 1005.02 1004.00 1002.67 1001.93 1002.56 1003.03 1002.72 1003.55 1004.53 1005.22 1005.85 1006.45 1006.93 1007.36 1007.76 1008.02 1008.30 1008.64 1009.12 1009.60 1010.07 1010.39 1010.79 1011.20 1011.54 1011.76 1012.10 1012.40 1012.76 1012.95 1013.29 1013.41 1013.55 1013.86 1014.12 1014.22 1014.32 1014.36 1014.42 1014.42
1011.03 1011.92 1011.64 1010.80 1010.12 1008.44 1006.81 1006.27 1005.36 1004.60 1004.19 1002.92 1002.21 1001.82 1001.42 1002.00 1003.74 1004.93 1006.00 1006.43 1006.89 1007.29 1007.46 1007.65 1007.93 1008.33 1008.90 1009.25 1009.68 1010.20 1010.60 1011.06 1011.38 1011.68 1011.85 1012.14 1012.44 1012.73 1013.04 1013.29 1013.47 1013.49 1013.71 1014.00 1014.22 1014.35 1014.50 1014.57 1014.58
1010.68 1011.01 1010.40 1009.66 1008.93 1007.85 1007.09 1006.61 1005.93 1005.34 1004.38 1003.28 1002.58 1002.13 1002.17 1002.85 1003.46 1004.59 1005.83 1006.75 1007.10 1007.58 1007.83 1007.90 1008.36 1008.78 1009.07 1009.54 1009.95 1010.29 1010.58 1010.87 1011.26 1011.54 1011.75 1011.97 1012.29 1012.55 1012.80 1013.13 1013.33 1013.34 1013.45 1013.69 1013.90 1014.05 1014.15 1014.28 1014.48
1009.61 1009.00 1008.99 1008.63 1008.12 1007.53 1007.30 1006.61 1005.98 1005.50 1004.73 1003.96 1003.42 1003.35 1004.05 1004.32 1004.22 1004.84 1005.71 1006.60 1007.24 1007.62 1008.15 1008.20 1008.26 1008.81 1009.08 1009.41 1009.69 1010.00 1010.28 1010.60 1010.87 1011.05 1011.52 1011.99 1012.38 1012.60 1012.70 1012.90 1013.15 1013.40 1013.36 1013.61 1013.75 1013.76 1013.94 1014.08 1014.20
1009.24 1008.49 1008.31 1008.02 1007.83 1007.56 1007.06 1006.28 1005.61 1005.24 1004.52 1003.95 1003.79 1003.65 1003.81 1004.75 1004.74 1005.03 1005.59 1006.38 1007.19 1007.32 1007.59 1008.02 1008.18 1008.37 1008.60 1008.82 1009.60 1009.88 1010.28 1010.72 1010.99 1011.27 1011.50 1011.93 1012.27 1012.51 1012.67 1012.82 1012.90 1013.16 1013.25 1013.47 1013.71 1013.94 1013.91 1014.07 1014.17
1008.53 1008.11 1007.69 1007.59 1007.54 1007.27 1006.62 1006.33 1005.99 1004.87 1004.35 1003.76 1003.93 1003.89 1004.10 1004.11 1005.32 1005.13 1005.74 1006.31 1006.74 1007.11 1007.42 1007.58 1007.81 1007.99 1008.24 1008.34 1007.94 1008.24 1008.68 1010.04 1010.45 1010.97 1011.50 1011.80 1012.09 1012.05 1012.11 1012.42 1012.62 1013.00 1013.13 1013.35 1013.68 1014.04 1014.20 1014.16 1014.13
1007.68 1007.44 1007.28 1007.29 1007.10 1006.91 1006.71 1005.55 1005.84 1004.69 1004.00 1003.90 1003.65 1003.72 1004.15 1004.52 1005.13 1005.87 1006.20 1006.40 1006.69 1006.97 1007.02 1007.34 1007.57 1007.19 1007.40 1007.87 1007.75 1008.08 1009.29 1009.06 1009.67 1010.54 1011.19 1011.33 1011.88 1012.06 1011.95 1012.07 1012.41 1012.84 1013.29 1013.39 1013.44 1013.62 1013.84 1013.83 1013.77
1007.43 1007.46 1006.94 1006.67 1006.56 1006.35 1006.47 1005.04 1004.66 1004.57 1003.98 1003.85 1003.58 1003.59 1003.36 1004.37 1004.96 1005.07 1005.34 1005.87 1006.02 1006.27 1006.38 1006.64 1006.81 1007.01 1006.85 1007.56 1008.20 1008.86 1009.32 1009.00 1009.39 1010.47 1011.00 1010.98 1011.27 1012.19 1011.72 1011.91 1012.25 1012.63 1012.79 1013.14 1013.33 1013.49 1013.67 1013.77 1013.77
1007.07 1007.14 1006.92 1005.91 1005.95 1005.55 1005.97 1003.67 1003.88 1003.88 1003.81 1003.74 1003.36 1003.40 1003.57 1003.56 1004.15 1004.65 1005.00 1005.36 1005.99 1006.08 1006.22 1006.29 1006.41 1006.92 1007.25 1007.66 1008.23 1009.09 1009.08 1009.27 1009.76 1010.34 1010.88 1011.06 1011.46 1011.60 1011.42 1011.91 1012.19 1012.35 1013.01 1013.17 1013.35 1014.01 1014.24 1014.16 1013.76
1007.25 1006.63 1006.12 1005.95 1005.31 1005.21 1005.02 1003.73 1003.34 1003.15 1003.39 1003.45 1003.46 1003.23 1003.43 1003.49 1003.63 1004.22 1004.73 1005.17 1005.42 1005.56 1005.80 1006.00 1006.18 1006.86 1007.57 1008.05 1008.41 1008.66 1009.08 1009.27 1009.83 1010.30 1010.70 1010.99 1011.31 1011.55 1011.52 1012.09 1012.44 1012.61 1012.90 1013.20 1013.70 1014.14 1014.38 1014.14 1013.81
1006.52 1006.46 1005.75 1005.27 1004.63 1004.73 1004.23 1003.95 1003.31 1002.95 1003.08 1003.21 1003.24 1002.99 1003.07 1003.39 1003.13 1003.39 1004.17 1004.92 1005.32 1005.64 1005.85 1006.11 1006.49 1007.18 1007.77 1008.06 1008.54 1008.58 1009.05 1009.63 1009.70 1010.21 1010.65 1010.61 1010.97 1011.20 1011.21 1012.40 1012.52 1012.42 1012.85 1013.32 1013.74 1013.96 1014.07 1013.91 1013.77
1005.64 1005.50 1005.02 1004.69 1004.16 1004.13 1003.97 1003.72 1003.33 1002.82 1002.59 1002.73 1002.79 1002.88 1002.76 1002.70 1002.41 1003.14 1003.90 1004.79 1005.51 1006.00 1006.14 1006.55 1006.61 1007.14 1007.73 1008.40 1008.72 1009.07 1009.56 1010.03 1009.76 1010.13 1010.32 1010.57 1010.74 1010.84 1011.04 1011.88 1012.28 1012.62 1012.92 1013.24 1013.45 1013.78 1014.08 1014.19 1014.03
1005.20 1004.96 1004.60 1004.46 1003.92 1003.94 1003.85 1003.52 1003.08 1002.51 1002.07 1001.86 1001.85 1002.09 1002.33 1002.31 1002.87 1003.54 1004.27 1005.02 1005.38 1005.71 1006.21 1006.78 1006.88 1007.31 1007.73 1008.09 1008.40 1008.83 1009.52 1010.25 1010.33 1010.65 1010.75 1010.92 1010.85 1010.96 1011.28 1011.80 1012.27 1012.63 1012.97 1013.25 1013.64 1013.83 1014.10 1014.24 1013.93
1003.92 1003.85 1004.26 1004.41 1004.13 1003.96 1003.97 1003.50 1002.97 1001.90 1001.46 1001.14 1001.24 1001.18 1001.51 1002.04 1002.74 1003.60 1004.24 1004.83 1005.44 1005.89 1006.26 1006.72 1007.28 1007.72 1007.88 1007.98 1008.53 1009.14 1009.84 1010.45 1010.91 1011.29 1011.21 1011.27 1011.16 1011.13 1011.41 1011.69 1012.17 1012.65 1012.80 1013.18 1013.54 1013.90 1014.34 1014.67 1014.22
1002.66 1003.25 1003.92 1004.32 1004.66 1004.76 1004.14 1003.86 1002.95 1001.96 1001.14 1000.82 1000.83 1001.22 1001.61 1001.88 1002.63 1003.50 1004.08 1004.86 1005.47 1006.11 1006.73 1007.08 1007.02 1007.20 1008.34 1008.41 1008.82 1009.29 1009.72 1010.47 1011.41 1011.58 1011.70 1011.74 1011.60 1011.71 1011.98 1012.09 1012.44 1012.81 1013.14 1013.44 1013.86 1013.93 1014.22 1014.57 1014.57
1001.18 1002.29 1003.30 1004.07 1004.55 1005.09 1004.47 1004.66 1002.96 1002.25 1001.41 1001.16 1001.40 1001.51 1002.19 1002.60 1002.77 1003.66 1004.45 1005.19 1006.15 1006.77 1007.40 1007.79 1007.99 1008.27 1008.70 1008.48 1008.91 1009.29 1010.20 1010.89 1011.52 1011.90 1012.01 1012.36 1012.39 1012.60 1012.85 1012.91 1013.08 1013.30 1013.67 1013.93 1014.16 1014.13 1014.12 1014.25 1014.40
1000.92 1002.02 1003.20 1004.11 1005.24 1005.23 1004.05 1004.40 1003.23 1002.39 1001.53 1001.44 1002.03 1002.68 1002.98 1003.33 1004.27 1004.94 1005.49 1005.82 1006.47 1007.25 1007.57 1008.12 1008.60 1008.69 1008.93 1009.53 1009.57 1009.91 1010.79 1011.61 1011.87 1012.27 1012.60 1013.07 1013.42 1013.62 1013.47 1013.51 1013.75 1013.99 1014.18 1014.27 1014.43 1014.42 1014.48 1014.33 1014.37
1000.46 1001.70 1003.68 1005.12 1005.54 1004.00 1003.47 1004.12 1002.95 1001.73 1001.25 1000.91 1002.17 1003.30 1003.62 1004.19 1004.79 1005.79 1006.40 1007.39 1007.91 1008.27 1008.30 1008.97 1008.98 1009.51 1009.77 1010.03 1010.65 1011.03 1011.39 1011.86 1012.39 1012.85 1013.27 1013.69 1013.98 1014.04 1014.05 1014.22 1014.33 1014.42 1014.49 1014.59 1014.67 1014.75 1014.55 1014.45 1014.52
999.76 1000.88 1002.33 1003.50 1004.20 1004.11 1003.59 1003.30 1002.18 1001.33 1001.08 1001.28 1002.19 1003.20 1004.01 1004.52 1004.91 1006.16 1006.21 1007.91 1008.03 1009.08 1009.44 1009.36 1009.95 1010.15 1010.71 1010.88 1011.41 1011.79 1011.87 1012.52 1013.16 1013.36 1013.62 1014.01 1014.27 1014.37 1014.53 1014.71 1014.73 1014.84 1014.74 1014.80 1014.83 1014.61 1014.52 1014.46 1014.45
998.87 1000.09 1000.91 1002.75 1003.78 1003.78 1003.37 1002.94 1001.95 1002.16 1002.44 1002.54 1003.14 1004.04 1004.91 1005.07 1005.70 1005.92 1006.79 1007.46 1008.83 1008.44 1010.33 1009.93 1010.63 1011.07 1011.50 1011.83 1012.30 1012.81 1012.87 1013.19 1013.56 1013.71 1013.96 1014.38 1014.65 1014.84 1015.17 1015.17 1015.08 1014.94 1014.91 1014.92 1014.71 1014.57 1014.53 1014.34 1014.25
997.56 999.06 1000.89 1002.31 1003.37 1003.84 1003.57 1003.01 1002.85 1003.40 1003.56 1003.88 1004.21 1004.86 1005.45 1005.68 1006.56 1007.08 1007.70 1008.50 1009.08 1009.13 1010.26 1011.10 1011.17 1011.72 1012.16 1012.42 1012.67 1013.16 1013.52 1013.72 1013.91 1014.09 1014.40 1014.66 1014.92 1015.06 1015.14 1015.15 1015.16 1015.09 1015.02 1014.87 1014.65 1014.35 1014.01 1013.90 1013.70
997.36 998.34 999.67 1001.01 1002.44 1003.20 1004.04 1003.70 1003.34 1003.57 1003.91 1004.19 1005.02 1005.45 1005.89 1006.50 1006.72 1007.67 1008.41 1009.23 1010.02 1009.68 1010.41 1012.03 1012.34 1012.82 1013.00 1012.98 1013.20 1013.43 1013.67 1013.84 1013.99 1014.17 1014.37 1014.57 1014.84 1015.05 1015.14 1015.18 1015.13 1015.00 1014.65 1014.48 1014.30 1014.08 1013.84 1013.61 1013.41
996.92 997.89 999.15 1000.37 1002.26 1002.90 1003.16 1004.31 1003.99 1004.36 1004.66 1004.75 1005.40 1006.15 1006.60 1007.27 1007.83 1008.44 1009.12 1009.80 1010.38 1009.92 1010.67 1012.56 1012.97 1013.33 1013.77 1013.69 1013.83 1014.13 1014.15 1014.23 1014.36 1014.47 1014.46 1014.63 1014.90 1015.14 1015.29 1015.22 1015.05 1014.76 1014.51 1014.44 1014.29 1014.05 1013.74 1013.58 1013.39
Wind_Speed
5 5 1 4 4 5 5 8 4 3 4 2 5 5 6 4 5 6 1 10 13 14 15 15 16 16 15 16 16 16 17 17 18 18 18 17 16 15 15 14 13 13 13 12 11 11 11 11 12
2 1 4 2 5 3 7 5 9 7 5 10 6 3 3 4 3 3 8 8 14 13 12 15 18 17 16 16 16 16 16 16 16 16 16 15 15 14 14 12 12 11 11 11 11 10 10 10 11
1 2 4 4 4 8 7 5 4 7 4 3 4 2 3 4 1 6 2 13 14 12 11 11 19 19 17 16 14 15 16 16 16 15 15 14 14 13 12 11 10 10 9 8 8 9 9 9 9
2 3 4 5 8 10 7 3 4 11 10 4 3 5 5 5 5 5 14 15 15 12 10 14 15 18 17 16 14 14 15 15 16 15 14 14 13 12 11 10 9 9 8 7 6 5 6 7 7
4 3 2 3 8 8 2 3 1 7 6 10 4 3 4 4 9 15 15 15 14 11 11 12 15 16 18 17 15 12 13 14 14 14 13 13 12 11 10 10 9 8 8 7 6 4 3 4 5
3 3 2 7 6 7 8 5 3 4 8 17 2 6 6 4 11 11 14 14 13 14 11 12 16 16 16 16 15 13 12 13 14 14 13 12 11 9 8 7 7 7 6 6 5 4 3 2 1
6 4 6 4 6 5 11 2 3 5 7 14 7 9 3 4 9 12 13 12 13 13 12 10 10 13 15 14 13 13 12 12 12 12 12 11 10 9 8 7 5 4 4 4 4 3 3 2 3
5 5 3 5 3 8 5 2 2 1 14 8 6 7 7 5 13 11 10 9 9 10 13 13 10 9 8 8 12 11 11 11 11 11 12 11 11 9 8 7 6 6 5 5 5 5 6 6 5
5 1 5 6 8 9 4 5 5 3 6 6 6 4 6 19 16 12 8 9 9 8 11 13 13 11 8 7 9 11 13 11 11 10 11 9 4 6 7 6 6 6 5 5 5 5 5 6 6
6 6 10 7 6 7 1 3 5 7 9 6 6 8 11 16 17 16 12 10 8 11 10 9 10 8 7 6 5 5 7 5 6 6 7 5 6 5 6 7 9 9 8 8 8 7 7 5 2
7 7 6 4 7 8 3 6 4 5 8 4 3 3 7 4 8 13 10 10 11 12 9 11 11 8 7 7 6 4 3 4 5 9 7 5 4 4 3 3 3 3 8 3 5 5 3 5 4
4 7 7 6 6 3 4 4 5 5 12 6 5 6 4 12 7 9 13 14 14 14 14 11 10 11 9 6 5 5 4 3 3 4 6 5 4 4 4 3 4 4 3 4 4 3 4 4 4
4 4 4 7 7 9 9 9 9 12 12 11 7 5 3 2 10 5 8 10 13 14 12 13 12 10 7 9 10 11 10 7 5 5 6 5 5 5 4 4 3 4 3 3 3 1 1 2 4
5 14 18 7 9 6 8 15 7 7 10 11 9 8 8 8 9 13 9 14 15 13 15 12 13 13 13 10 9 6 4 6 5 5 6 7 4 5 5 5 4 3 2 3 4 4 3 2 2
10 9 9 8 9 8 5 21 12 11 10 11 10 10 8 10 11 14 17 17 18 16 16 16 16 13 13 8 5 4 3 5 8 5 5 7 5 5 4 3 3 3 4 5 3 3 4 4 3
3 8 14 6 9 9 12 19 7 12 11 12 11 9 8 8 12 9 14 15 13 14 15 15 14 11 5 7 8 5 5 4 3 5 3 4 6 7 4 3 3 4 3 3 3 2 1 1 2
5 4 5 4 11 7 13 3 11 11 11 12 10 10 9 8 6 9 14 14 16 17 17 16 12 8 7 6 4 5 4 4 4 4 4 6 5 6 4 4 3 4 4 3 3 1 2 3 3
8 5 5 7 6 11 13 6 9 8 8 11 10 9 9 10 13 10 15 14 14 14 14 7 4 6 5 4 2 2 3 4 3 4 5 8 7 7 4 4 4 5 4 3 3 3 4 3 2
5 12 7 5 7 7 7 6 11 12 6 9 10 9 10 10 6 9 12 12 11 8 7 5 6 6 5 2 3 1 2 2 1 3 5 4 4 5 5 4 5 4 5 4 4 2 3 2 2
14 8 6 4 5 5 7 11 10 10 8 9 12 10 11 8 7 10 11 12 12 11 8 6 5 6 5 4 3 2 3 3 4 2 4 3 3 4 4 5 4 5 4 5 4 2 1 2 1
20 19 5 5 0 3 3 7 7 10 8 7 8 10 5 8 10 12 14 13 10 10 11 7 5 3 4 5 4 4 5 3 3 3 4 5 5 5 4 4 3 4 3 3 2 1 1 2 2
21 11 9 6 2 4 7 6 6 8 10 8 9 8 8 12 11 12 15 13 13 7 7 7 9 10 4 6 4 5 3 5 3 3 4 5 8 10 8 5 2 3 3 2 1 1 1 2 2
12 13 12 7 4 1 7 1 8 4 4 3 6 7 8 8 13 15 12 12 11 10 8 6 6 7 4 8 7 7 10 6 4 4 9 8 8 9 8 8 7 7 4 5 5 4 2 2 2
10 8 4 3 5 9 7 8 6 3 7 4 6 8 10 12 12 13 12 13 13 10 10 8 9 9 7 8 7 11 12 8 7 5 7 5 4 4 7 7 6 6 5 4 4 4 4 3 3
9 11 2 3 4 11 10 6 8 7 7 7 14 11 13 14 15 14 15 13 11 10 11 9 10 11 9 10 10 9 9 9 8 6 5 5 3 3 6 5 6 4 4 4 4 3 4 4 3
12 8 7 7 5 5 8 6 6 7 5 8 14 15 14 15 16 15 15 15 15 12 8 12 10 11 10 10 9 7 8 6 5 5 5 4 4 3 3 4 4 4 3 2 3 2 3 2 3
9 13 10 4 2 4 4 3 4 6 7 13 15 15 13 13 14 16 15 15 11 15 7 11 10 9 8 8 7 6 6 7 6 7 6 4 3 3 3 3 2 3 4 4 4 3 5 4 3
10 8 8 5 8 4 3 5 6 3 6 7 13 13 10 13 15 13 13 12 11 14 10 8 9 8 7 7 7 6 6 6 6 6 6 6 4 4 3 1 1 3 3 4 4 4 5 5 4
9 13 6 8 6 8 4 5 2 5 6 11 7 8 13 12 14 13 12 11 10 14 15 10 9 8 6 6 5 7 5 5 5 4 3 4 3 3 2 2 3 4 5 6 5 6 6 6 7
6 10 13 5 4 1 5 3 3 5 3 11 13 9 10 12 12 10 11 13 14 14 16 10 8 9 6 6 6 5 4 4 4 2 3 3 4 1 2 3 4 5 5 6 6 6 6 7 8
Wind_Direction
290 295 29 42 65 65 253 252 257 331 294 332 359 209 165 294 171 209 314 167 128 144 150 150 148 146 138 134 135 134 131 129 128 126 125 125 125 125 124 126 128 131 138 140 138 136 130 128 125
291 242 44 78 112 151 257 226 235 241 244 341 1 326 23 254 23 135 107 152 149 143 148 150 150 143 144 143 142 137 132 130 128 125 124 124 124 124 125 125 128 131 137 142 143 140 132 129 126
290 54 103 145 158 210 225 225 189 275 297 314 310 28 214 218 74 172 136 145 135 140 144 155 151 144 146 148 144 139 137 135 133 130 128 127 126 124 124 128 131 135 135 139 144 142 139 135 131
75 18 29 127 218 258 211 145 19 324 323 216 104 287 305 166 163 153 133 137 133 138 136 150 149 141 141 147 149 144 143 143 138 136 134 133 132 129 129 131 136 140 140 142 146 150 146 138 130
49 36 134 228 241 257 230 244 241 290 289 283 47 226 260 356 108 132 139 140 138 134 135 143 145 141 141 148 151 148 145 142 138 136 137 139 136 136 136 138 141 144 148 151 155 159 151 142 135
60 107 106 224 234 276 294 213 127 231 263 275 237 188 210 130 125 143 143 142 142 139 138 141 145 145 147 151 153 151 148 147 145 143 143 142 136 135 136 139 144 141 144 155 162 170 176 181 167
133 102 218 205 250 269 252 269 209 245 274 275 211 152 244 200 145 148 143 136 143 137 137 137 142 150 150 152 150 150 151 151 148 144 142 141 142 140 142 145 139 133 139 152 166 188 206 231 271
126 122 201 220 201 277 259 256 277 272 302 277 170 168 189 198 140 125 129 117 111 122 138 145 144 147 145 149 152 152 149 149 144 144 143 147 151 155 158 163 163 163 173 184 193 205 217 233 247
128 137 206 202 152 240 306 9 300 284 264 301 315 174 232 127 126 115 102 106 115 126 148 157 160 158 152 144 156 149 152 144 147 151 153 152 150 162 175 177 186 181 187 200 214 227 246 265 284
155 184 207 205 199 247 288 299 328 337 339 307 356 19 78 132 139 147 154 150 148 149 159 153 155 144 123 146 124 130 156 155 159 164 167 164 165 166 174 185 193 192 194 197 204 216 225 247 263
210 230 170 232 226 234 223 288 245 274 300 285 357 30 81 94 157 149 156 157 157 151 167 164 147 122 133 133 155 168 167 171 178 178 171 159 154 172 173 180 191 204 210 206 211 210 210 216 223
230 198 192 214 222 273 226 245 272 237 253 225 275 288 184 157 182 170 160 151 157 165 170 158 148 146 155 145 148 179 179 192 187 187 163 162 167 177 186 193 193 205 210 198 206 217 224 249 273
233 246 228 216 231 252 266 233 250 264 268 283 254 184 207 281 109 181 157 154 157 167 168 166 162 163 169 177 171 181 176 180 171 166 190 178 194 182 175 203 191 208 186 192 197 229 254 252 240
212 221 244 239 246 242 258 266 181 266 259 270 272 226 191 192 146 141 155 163 172 170 174 171 179 175 175 194 190 177 198 139 154 180 200 182 170 199 190 193 198 194 182 170 188 216 227 233 197
242 275 283 229 223 234 215 273 233 229 247 257 259 259 249 183 157 174 171 175 173 183 176 181 183 189 181 181 157 133 168 179 173 182 183 182 167 241 216 185 163 176 190 189 155 143 143 138 132
236 204 242 180 197 238 157 247 284 214 220 230 245 257 237 247 186 176 182 176 177 171 187 187 189 189 138 128 140 162 182 166 164 148 132 209 194 209 198 132 106 113 94 104 126 98 59 78 136
254 232 210 251 197 217 183 219 252 207 200 226 228 234 250 251 237 178 182 181 178 186 185 194 197 185 141 136 151 146 159 151 126 139 156 220 212 215 187 108 139 144 147 151 141 141 195 205 225
209 206 212 196 208 203 235 226 255 250 212 222 234 232 225 239 241 185 177 180 184 188 190 204 125 115 136 127 97 70 89 85 127 148 183 200 190 203 152 124 140 142 133 160 170 186 211 220 248
215 225 192 188 223 192 230 244 254 253 237 230 234 234 230 225 254 166 168 172 171 179 171 199 144 146 143 123 105 132 162 115 165 184 177 167 168 156 137 129 136 158 160 173 175 170 211 268 238
231 241 222 234 243 167 256 262 247 253 245 212 224 233 226 226 136 149 148 166 180 184 171 158 162 152 170 175 135 125 119 114 89 81 90 134 127 120 127 136 155 161 150 159 172 134 52 285 173
218 227 185 187 357 232 294 289 285 276 244 231 234 230 199 211 148 151 158 171 163 174 187 171 137 177 179 137 98 72 94 91 80 45 53 36 63 86 82 81 122 151 137 163 154 200 214 278 342
218 192 188 192 191 217 156 272 278 263 246 200 211 191 161 137 134 154 157 154 163 167 115 110 166 141 185 130 136 161 134 120 84 86 85 61 54 56 46 59 106 85 72 50 325 73 177 152 265
219 173 189 179 211 85 231 286 269 300 236 179 187 125 111 112 133 142 143 108 94 95 88 89 87 78 94 119 134 111 96 97 106 90 88 69 52 49 57 58 59 57 48 42 36 12 347 190 210
151 167 166 157 116 241 195 169 264 213 215 175 91 102 111 109 99 92 91 98 100 92 94 88 84 64 60 77 82 105 115 121 107 88 86 70 65 50 49 51 50 47 40 28 7 7 9 359 318
188 140 165 198 189 235 160 167 219 227 233 178 137 136 129 123 110 105 96 95 93 92 94 76 80 77 64 72 78 86 96 99 100 98 102 99 73 44 40 43 39 28 16 17 15 7 9 8 354
197 163 150 179 171 177 127 202 234 218 286 144 144 136 134 132 121 126 122 125 111 100 92 92 92 89 74 79 70 74 81 81 90 102 101 97 92 76 48 51 53 48 42 28 14 356 339 328 318
189 189 176 87 339 90 186 212 8 51 56 122 132 140 143 128 125 122 122 122 114 110 104 100 101 90 93 92 93 82 89 94 102 95 92 93 97 108 109 99 70 350 333 324 330 317 302 305 279
180 164 161 210 186 182 283 169 173 142 135 143 142 137 127 121 122 119 123 121 124 109 104 78 83 85 86 91 90 95 98 98 107 113 118 129 140 138 148 156 272 301 297 296 300 294 298 304 290
178 208 198 156 155 168 140 253 282 170 176 147 123 122 131 132 129 126 121 109 98 103 94 91 76 81 79 88 96 103 104 104 101 106 121 148 154 185 214 250 307 313 316 310 311 300 292 290 292
150 195 215 180 197 139 143 253 83 80 169 116 113 114 119 123 123 114 120 124 115 106 96 87 86 78 60 74 82 83 106 127 135 154 180 185 198 243 302 310 306 304 306 303 300 290 291 288 289